Weather in Podberezovo

Russia / Oryol Oblast     53°15′51″N   36°37′35″E
temp.,
°C
wind,
m/s
gust,
m/s
humid.,
%
clouds,
%
prec.,
mm/h
press.,
hPa
HPBL,
m
21 january, fri
fri2100:00−4s71593100 0.7 1005606
03:00−4s71396100 1.7 1004571
06:00−5s61396100 1.1 1001533
09:00−5s61196100 2.6 1001461
12:00−4s51196100 1.6 999483
15:00−4sw51089100 1.8 999552
18:00−6ssw61290100 0.1 999551
21:00−5s71494100 0.3 999669
22 january, sat
sat2200:00−4ssw71493100 0.6 999569
03:00−4ssw71395100 1.2 1000627
06:00−4ssw61194100 0.6 1001484
09:00−5ssw5119490 0.8 1003391
12:00−5s489597 0.1 1006356
15:00−5s479595 0.3 1008393
18:00−8sse379755 0.1 101092
21:00−12sse239897 0.1 101337
23 january, sun
sun2300:00−13se229976 0.0 101514
03:00−15se2210097 0.0 101712
06:00−17se22100100 0.0 102011
09:00−18ese22100100 0.1 102311
12:00−10e129686 0.1 102686
15:00−8ne23955 0.1 102760
18:00−15ne239862 0.0 103035
21:00−15ne259858 0.0 103265
24 january, mon
mon2400:00−17nne369855 0.0 103358
03:00−15ne4119755 0.0 1033161
06:00−13nne5129561 0.0 1033218
09:00−12ne51395100 0.1 1034281
12:00−8ne61293100 0.1 1033318
15:00−8ne4993100 0.1 1032319
18:00−10ne3795100 0.0 1033120
21:00−14ese369770 0.0 103464
25 january, tue
tue2500:00−17ene229960 0.0 103222
03:00−19e2210078 0.0 103112
06:00−20e2210085 0.0 103012
09:00−19ese2210095 0.0 102929
12:00−11sse129360 0.0 1027104
15:00−10s239461 0.0 1024139
18:00−16sse2210071 0.0 102411
21:00−18s2210098 0.0 102317